Tracking 22882 objects as of 18-Apr-2021
HD Live streaming from Space Station
objects crossing your sky now

RADUGA 1-5

Track RADUGA 1-5 now!
RADUGA 1-5 is classified as:


NORAD ID: 26477
Int'l Code: 2000-049A
Perigee: 35,751.6 km
Apogee: 35,815.5 km
Inclination: 12.9 °
Period: 1,435.6 minutes
Semi major axis: 42154 km
RCS: 10 m2 (large)
Launch date: August 28, 2000
Source: Commonwealth of Independent States (former USSR) (CIS)
Launch site: TYURATAM MISSILE AND SPACE COMPLEX (TTMTR)

Military communication.
aabbcc
Your satellite tracking list
Your tracking list is empty




NASA's NSSDC Master Catalog

Two Line Element Set (TLE):
1 26477U 00049A   21107.99245885 -.00000323  00000-0  00000+0 0  9998
2 26477  12.8766  21.6332 0007577  26.0666 256.7624  1.00308064 75575
Source of the keplerian elements: AFSPC